Location: ????????
(48.4751°N, 37.6926°E)
Time: 19:57:26
(UTC+00:00)

Okean O Rocket - Pass Details

Date: 20 January 2021
Orbit: 622 x 645 km, 98.2° (Epoch: 02 March)

Event Time Altitude Azimuth Distance (km) Brightness Sun altitude
Rises 14:55:43 0° 163° (SSE) 2,943 5.1 -7.8°
Reaches altitude 10° 14:57:55 10° 164° (SSE) 2,036 4.3 -8.1°
Maximum altitude 15:02:22 88° 79° (E) 650 1.6 -8.8°
Drops below altitude 10° 15:06:50 10° 346° (NNW) 2,042 4.2 -9.5°
Sets 15:09:02 0° 347° (NNW) 2,953 5.0 -9.8°
